TimeCST,TemperatureF,Dew PointF,Humidity,Sea Level PressureIn,VisibilityMPH,Wind Direction,Wind SpeedMPH,Gust SpeedMPH,PrecipitationIn,Events,Conditions,WindDirDegrees,DateUTC
12:15 AM,32.0,26.6,80,29.92,10.0,WSW,5.8,-,N/A,,Overcast,240,2013-12-28 06:15:00
12:35 AM,32.0,28.4,87,29.93,10.0,West,5.8,-,N/A,,Overcast,260,2013-12-28 06:35:00
12:55 AM,32.0,26.6,80,29.93,10.0,WSW,4.6,-,N/A,,Overcast,250,2013-12-28 06:55:00
1:15 AM,32.0,26.6,80,29.93,10.0,WSW,4.6,-,N/A,,Overcast,250,2013-12-28 07:15:00
1:35 AM,32.0,26.6,80,29.94,10.0,West,3.5,-,N/A,,Overcast,260,2013-12-28 07:35:00
1:55 AM,32.0,26.6,80,29.94,10.0,West,4.6,-,N/A,,Overcast,270,2013-12-28 07:55:00
2:15 AM,30.2,28.4,93,29.96,10.0,West,5.8,-,N/A,,Overcast,260,2013-12-28 08:15:00
2:35 AM,30.2,26.6,86,29.96,10.0,West,5.8,-,N/A,,Overcast,270,2013-12-28 08:35:00
2:55 AM,30.2,26.6,86,29.95,10.0,West,4.6,-,N/A,,Overcast,260,2013-12-28 08:55:00
3:15 AM,30.2,26.6,86,29.94,10.0,WSW,4.6,-,N/A,,Overcast,240,2013-12-28 09:15:00
3:35 AM,30.2,26.6,86,29.94,10.0,WSW,4.6,-,N/A,,Overcast,240,2013-12-28 09:35:00
3:55 AM,30.2,26.6,86,29.94,10.0,SW,5.8,-,N/A,,Overcast,230,2013-12-28 09:55:00
4:15 AM,30.2,26.6,86,29.94,10.0,WSW,4.6,-,N/A,,Overcast,250,2013-12-28 10:15:00
4:35 AM,30.2,26.6,86,29.94,10.0,West,4.6,-,N/A,,Overcast,260,2013-12-28 10:35:00
4:55 AM,30.2,26.6,86,29.94,10.0,West,3.5,-,N/A,,Overcast,260,2013-12-28 10:55:00
5:15 AM,30.2,26.6,86,29.94,10.0,Calm,Calm,-,N/A,,Overcast,0,2013-12-28 11:15:00
5:35 AM,30.2,26.6,86,29.94,10.0,WSW,3.5,-,N/A,,Overcast,240,2013-12-28 11:35:00
5:55 AM,30.2,26.6,86,29.96,10.0,WSW,5.8,-,N/A,,Overcast,250,2013-12-28 11:55:00
6:15 AM,30.2,26.6,86,29.95,10.0,WSW,3.5,-,N/A,,Overcast,240,2013-12-28 12:15:00
6:35 AM,30.2,26.6,86,29.95,10.0,WSW,3.5,-,N/A,,Overcast,240,2013-12-28 12:35:00
6:55 AM,28.4,26.6,93,29.94,10.0,SW,3.5,-,N/A,,Overcast,230,2013-12-28 12:55:00
7:15 AM,28.4,24.8,86,29.94,9.0,SW,5.8,-,N/A,,Overcast,230,2013-12-28 13:15:00
7:35 AM,28.4,26.6,93,29.94,8.0,Calm,Calm,-,N/A,,Scattered Clouds,0,2013-12-28 13:35:00
7:55 AM,28.4,26.6,93,29.93,7.0,Calm,Calm,-,N/A,,Clear,0,2013-12-28 13:55:00
8:15 AM,28.4,24.8,86,29.92,6.0,WSW,3.5,-,N/A,,Clear,240,2013-12-28 14:15:00
8:35 AM,26.6,26.6,100,29.92,3.0,SW,8.1,-,N/A,,Mostly Cloudy,230,2013-12-28 14:35:00
8:55 AM,28.4,26.6,93,29.92,2.0,WSW,3.5,-,N/A,,Overcast,240,2013-12-28 14:55:00
9:15 AM,28.4,28.4,100,29.92,2.5,SW,3.5,-,N/A,,Overcast,230,2013-12-28 15:15:00
9:35 AM,28.4,26.6,93,29.93,3.0,SSW,9.2,-,N/A,,Overcast,210,2013-12-28 15:35:00
9:55 AM,28.4,28.4,100,29.93,3.0,SW,9.2,-,N/A,,Overcast,220,2013-12-28 15:55:00
10:15 AM,30.2,28.4,93,29.93,5.0,SSW,10.4,-,N/A,,Overcast,210,2013-12-28 16:15:00
10:35 AM,28.4,24.8,86,29.91,5.0,SSW,6.9,-,N/A,,Overcast,200,2013-12-28 16:35:00
10:55 AM,28.4,26.6,93,29.89,5.0,SSW,8.1,-,N/A,,Mostly Cloudy,210,2013-12-28 16:55:00
11:15 AM,28.4,26.6,93,29.88,5.0,SW,8.1,-,N/A,,Mostly Cloudy,220,2013-12-28 17:15:00
11:35 AM,30.2,26.6,86,29.86,7.0,SW,5.8,-,N/A,,Partly Cloudy,230,2013-12-28 17:35:00
11:55 AM,30.2,26.6,86,29.85,8.0,SW,8.1,-,N/A,,Clear,220,2013-12-28 17:55:00
12:15 PM,32.0,26.6,80,29.84,9.0,SSW,3.5,-,N/A,,Clear,200,2013-12-28 18:15:00
12:35 PM,33.8,26.6,75,29.83,10.0,SSW,4.6,-,N/A,,Clear,210,2013-12-28 18:35:00
12:55 PM,33.8,26.6,75,29.81,10.0,SSW,3.5,-,N/A,,Clear,200,2013-12-28 18:55:00
1:15 PM,35.6,28.4,75,29.80,10.0,SW,5.8,-,N/A,,Clear,220,2013-12-28 19:15:00
1:35 PM,35.6,28.4,75,29.79,10.0,South,5.8,-,N/A,,Clear,190,2013-12-28 19:35:00
1:55 PM,35.6,28.4,75,29.78,10.0,South,4.6,-,N/A,,Clear,190,2013-12-28 19:55:00
2:15 PM,35.6,26.6,70,29.78,10.0,South,8.1,-,N/A,,Clear,190,2013-12-28 20:15:00
2:35 PM,33.8,28.4,81,29.78,9.0,South,9.2,-,N/A,,Clear,190,2013-12-28 20:35:00
2:55 PM,33.8,28.4,81,29.78,10.0,SSW,6.9,-,N/A,,Clear,210,2013-12-28 20:55:00
3:15 PM,35.6,28.4,75,29.78,10.0,SW,3.5,-,N/A,,Clear,220,2013-12-28 21:15:00
3:35 PM,35.6,28.4,75,29.79,10.0,Calm,Calm,-,N/A,,Clear,0,2013-12-28 21:35:00
3:55 PM,33.8,28.4,81,29.78,10.0,Calm,Calm,-,N/A,,Clear,0,2013-12-28 21:55:00
4:15 PM,32.0,26.6,80,29.78,10.0,Calm,Calm,-,N/A,,Clear,0,2013-12-28 22:15:00
4:35 PM,30.2,26.6,86,29.77,9.0,Calm,Calm,-,N/A,,Clear,0,2013-12-28 22:35:00
4:55 PM,28.4,24.8,86,29.78,8.0,SE,4.6,-,N/A,,Clear,140,2013-12-28 22:55:00
5:15 PM,26.6,23.0,86,29.78,5.0,SE,3.5,-,N/A,,Clear,130,2013-12-28 23:15:00
5:35 PM,26.6,26.6,100,29.77,5.0,Calm,Calm,-,N/A,,Clear,0,2013-12-28 23:35:00
5:55 PM,28.4,26.6,93,29.76,5.0,Calm,Calm,-,N/A,,Clear,0,2013-12-28 23:55:00
6:15 PM,26.6,24.8,93,29.75,5.0,Calm,Calm,-,N/A,,Clear,0,2013-12-29 00:15:00
6:35 PM,26.6,24.8,93,29.76,3.0,NE,3.5,-,N/A,,Clear,40,2013-12-29 00:35:00
6:55 PM,26.6,23.0,86,29.75,3.0,NE,3.5,-,N/A,,Clear,40,2013-12-29 00:55:00
7:15 PM,26.6,24.8,93,29.75,3.0,Calm,Calm,-,N/A,,Clear,0,2013-12-29 01:15:00
7:35 PM,24.8,21.2,86,29.74,1.2,Calm,Calm,-,N/A,,Clear,0,2013-12-29 01:35:00
7:55 PM,24.8,23.0,93,29.74,2.5,Calm,Calm,-,N/A,,Clear,0,2013-12-29 01:55:00
8:15 PM,24.8,21.2,86,29.73,1.5,Calm,Calm,-,N/A,,Clear,0,2013-12-29 02:15:00
8:35 PM,26.6,23.0,86,29.73,0.2,Calm,Calm,-,N/A,,Unknown,0,2013-12-29 02:35:00
8:55 PM,21.2,21.2,100,29.73,0.2,Calm,Calm,-,N/A,,Mostly Cloudy,0,2013-12-29 02:55:00
9:15 PM,24.8,23.0,93,29.73,2.5,Calm,Calm,-,N/A,,Overcast,0,2013-12-29 03:15:00
9:35 PM,23.0,23.0,100,29.73,3.0,North,3.5,-,N/A,,Overcast,360,2013-12-29 03:35:00
9:55 PM,26.6,24.8,93,29.73,3.0,North,3.5,-,N/A,,Overcast,10,2013-12-29 03:55:00
10:15 PM,26.6,24.8,93,29.73,3.0,NNW,3.5,-,N/A,,Mostly Cloudy,340,2013-12-29 04:15:00
10:35 PM,26.6,26.6,100,29.73,3.0,Calm,Calm,-,N/A,,Partly Cloudy,0,2013-12-29 04:35:00
10:55 PM,26.6,24.8,93,29.73,2.5,North,3.5,-,N/A,,Partly Cloudy,350,2013-12-29 04:55:00
11:15 PM,26.6,26.6,100,29.72,3.0,Calm,Calm,-,N/A,,Scattered Clouds,0,2013-12-29 05:15:00
11:35 PM,26.6,26.6,100,29.72,3.0,North,3.5,-,N/A,,Scattered Clouds,10,2013-12-29 05:35:00
11:55 PM,26.6,26.6,100,29.73,3.0,Calm,Calm,-,N/A,,Mostly Cloudy,0,2013-12-29 05:55:00